Weather in Urom

Russia / Udmurt Republic     56°33′44″N   52°43′53″E
temp.,
°C
wind,
m/s
gust,
m/s
humid.,
%
clouds,
%
prec.,
mm/h
press.,
hPa
HPBL,
m
12 may, wed
wed1201:00+18ne226056 0.0 102743
04:00+14ne11745 0.0 102811
07:00+17ne23695 0.0 1029166
10:00+22e22515 0.0 1028581
13:00+25ese22375 0.0 10281771
16:00+26sse22324 0.0 10272496
19:00+23se11431 0.0 102711
22:00+18s22520 0.0 102711
13 may, thu
thu1301:00+17ssw11580 0.0 102711
04:00+15sse11580 0.0 102811
07:00+18se23541 0.0 1028132
10:00+23sse354251 0.0 1028641
13:00+25s46304 0.0 10271800
16:00+25s563231 0.0 10262041
19:00+22s225096 0.0 102531
22:00+19sse225599 0.0 102513
14 may, fri
fri1401:00+17sse226233 0.0 102515
04:00+15sse3364100 0.0 102529
07:00+18s396086 0.0 1025241
10:00+23s584230 0.1 1024685
13:00+26ssw69345 0.0 10231521
16:00+27sw5936100 0.0 10231661
19:00+23ssw4104967 0.0 1022265
22:00+19ssw376070 0.0 102296
15 may, sat
sat1501:00+16ssw31073100 0.6 1022177
04:00+15ssw357111 0.7 102279
07:00+18ssw4106191 0.0 1022298
10:00+23ssw6943100 0.0 1021553
13:00+27sw793381 0.0 10201131
16:00+27sw6936100 0.0 10201354
19:00+23ssw375492 0.0 1019139
22:00+19sw34605 0.0 102050
16 may, sun
sun1601:00+17sw23605 0.0 102021
04:00+16ssw33629 0.0 102029
07:00+19ssw385771 0.0 1020205
10:00+25ssw5842100 0.0 1020572
13:00+28ssw683351 0.0 10192534
16:00+28sw693218 0.0 10182956
19:00+24ssw4951100 0.0 1017210
22:00+20ssw34627 0.0 101749